Location: Wonder Lake State Park
(41.4960°N, 73.6562°W)
Time: 08:21:42
(UTC-05:00)

Daily predictions for brighter satellites

Satellite Brightness Start Highest point End
(mag) Time Altitude Azimuth Time Altitude Azimuth Time Altitude Azimuth
Cosmos 1484 Rocket 3.2 17:25:21 10° SE 17:29:05 41° ENE 17:32:53 10° N
Abrixas 3.4 17:29:06 10° W 17:31:51 36° NNW 17:34:36 10° NE
CZ-2C R/B 2.8 17:27:04 10° S 17:31:59 70° WSW 17:36:46 10° NNW
Cosmos 1707 Rocket 4.3 17:29:40 10° NNE 17:33:31 31° ENE 17:37:23 10° SE
Cosmos 1340 Rocket 2.9 17:30:04 10° S 17:33:53 52° E 17:37:43 10° NNE
YAOGAN 1 2.7 17:30:53 10° SSE 17:35:13 85° WSW 17:39:34 10° NNW
COSMO-SKYMED 1 3.0 17:33:10 10° NNE 17:37:17 40° E 17:41:22 10° SSE
COSMOS 2441 4.3 17:34:19 10° SSE 17:39:09 77° ENE 17:43:59 10° N
CORIOLIS 4.3 17:33:58 10° SSE 17:39:19 82° WSW 17:44:43 10° NNW
SMAP 3.5 17:34:52 10° S 17:39:29 67° WSW 17:44:09 10° NNW
Cosmos 1666 Rocket 4.2 17:40:27 10° SSE 17:44:21 33° E 17:48:19 10° NNE
CENTAUR R/B 4.2 17:39:45 10° W 17:45:00 26° NW 17:50:50 10° NNE
ATLAS 5 CENTAUR R/B 4.2 17:43:10 10° N 17:45:08 12° NNE 17:47:08 10° NE
Lacrosse 4 Rocket 2.2 17:47:30 10° N 17:51:06 29° NE 17:54:39 10° ESE
Cosmos 1626 2.4 17:50:45 10° SSE 17:54:20 46° E 17:57:57 10° NNE
USA 229 DEB 4.0 17:51:27 10° S 17:57:56 48° ESE 18:04:29 10° NE
USA 229 4.0 17:51:34 10° S 17:58:02 47° ESE 18:04:33 10° NE
Resurs 01 Rocket 3.0 17:58:08 10° ESE 18:01:08 18° ENE 18:04:09 10° NNE
Cosmos 2219 Rocket 4.1 17:59:03 10° WSW 18:03:41 25° NW 18:08:19 10° N
Cosmos 2058 3.7 18:01:04 10° SSW 18:05:04 52° W 18:09:06 10° N
Cosmos 1184 Rocket 3.0 18:03:01 10° S 18:06:14 47° E 18:09:27 10° NNE
Cosmos 2279 Rocket 4.3 18:01:55 10° NNW 18:08:07 73° W 18:14:19 10° S
CZ-4C R/B 4.4 18:04:54 10° N 18:08:31 15° NNE 18:11:11 12° NE
Iridium 4 Rocket 3.7 18:06:34 10° SSE 18:10:26 31° E 18:14:10 10° NNE
Spot 2 Rocket 4.4 18:08:42 10° ESE 18:12:49 26° ENE 18:16:56 10° N
Cosmos 1603 4.1 18:08:08 10° S 18:13:18 40° ESE 18:17:32 15° NE
Cosmos 2333 Rocket 4.1 18:09:49 10° WSW 18:14:33 27° NW 18:19:18 10° N
Cosmos 1461 3.8 18:11:25 10° SW 18:15:25 44° NW 18:19:20 10° NNE
FREGAT/IRIS 3.2 18:13:11 10° SE 18:16:00 35° ENE 18:18:50 10° N
Aureole 1 Rocket 4.0 18:10:43 10° S 18:16:08 62° ESE 18:23:16 10° NNE
Lacrosse 5 rocket 4.1 18:13:52 10° WNW 18:16:36 19° SW 18:19:25 10° S
Cosmos 1470 Rocket 4.2 18:13:41 10° SSE 18:17:30 31° E 18:19:51 19° NE
DMSP B5D1-3 4.4 18:12:58 10° NNE 18:18:06 79° ESE 18:23:12 10° S
Cosmos 2278 Rocket 4.5 18:14:39 10° NW 18:19:23 28° WSW 18:24:05 10° SSW
Cosmos 1242 Rocket 3.1 18:16:29 10° N 18:19:40 32° ENE 18:22:50 10° SE
Cosmos 1455 2.0 18:17:23 10° N 18:21:11 81° E 18:25:00 10° S
Tiangong 1 2.3 18:19:41 10° SSW 18:22:13 25° SSE 18:22:42 24° SE
Cosmos 1805 Rocket 4.1 18:17:54 10° SSW 18:22:18 61° W 18:26:45 10° N
Cosmos 1356 Rocket 3.5 18:20:19 10° SSW 18:24:17 73° W 18:28:17 10° N
SKYMED 2 4.2 18:21:07 10° N 18:25:24 58° WNW 18:29:39 10° SSW
Nadezhda 4 Rocket 4.0 18:21:04 10° S 18:27:20 83° E 18:33:41 10° N
Cosmos 2242 Rocket 3.5 18:25:37 10° N 18:30:02 66° E 18:34:27 10° SSE
Cosmos 2026 Rocket 4.4 18:25:31 10° SSE 18:31:04 36° E 18:36:33 10° NNE
Cosmos 1538 Rocket 4.5 18:26:06 10° SSW 18:31:21 63° WNW 18:36:42 10° NNE
Sich 1 3.3 18:28:40 10° SSW 18:33:05 73° W 18:37:32 10° N
Coronas F rocket 1.6 18:35:33 10° SSW 18:37:53 55° W 18:37:55 55° WNW
Cosmos 923 Rocket 3.9 18:33:57 10° S 18:39:07 70° ESE 18:42:58 18° NNE
Cosmos 2237 Rocket 4.4 18:39:26 10° W 18:43:37 21° NW 18:47:50 10° N
SJ-6B 2.9 18:39:48 10° SSE 18:43:54 87° WSW 18:48:04 10° NNW
Cosmos 1633 Rocket 3.5 18:40:35 10° SSW 18:44:56 61° W 18:49:18 10° N
Cosmos 1680 Rocket 3.5 18:40:01 10° S 18:45:07 60° ESE 18:47:47 28° NE
Cosmos 972 Rocket 4.5 18:40:41 10° N 18:45:43 42° ENE 18:47:26 33° ESE
Cosmos 2369 Rocket 2.6 18:41:26 10° N 18:46:41 37° ENE 18:47:04 36° ENE
NOSS 3-1 (C) 3.8 18:43:45 10° S 18:49:02 39° ESE 18:50:00 37° E
Cosmos 1092 Rocket 4.0 18:44:23 10° S 18:50:44 90° W 18:57:07 10° N
SL-16 R/B 3.5 18:47:12 10° SW 18:52:25 37° WNW 18:57:40 10° N
Lacrosse 5 3.6 18:53:08 10° NNW 18:56:21 18° NNE 18:56:21 18° NNE
Cosmos 1867 4.4 18:52:07 10° NNW 18:56:25 32° NNE 18:56:25 32° NNE
ATLAS 3B R/B 4.4 18:56:01 10° NNW 18:59:59 15° NNE 19:00:18 15° NNE
USA 215 3.2 18:56:43 32° ESE 18:59:59 72° NE 19:06:31 10° NW
ALOS 2.1 18:57:00 10° SSE 19:01:40 81° ENE 19:06:21 10° N
Cosmos 1862 Rocket 3.5 19:04:35 10° N 19:08:59 83° W 19:13:19 10° S
FENGYUN 3A 3.6 19:06:02 10° SSE 19:11:23 87° WSW 19:16:48 10° NNW
BREEZE-M DEB (TANK) 4.4 19:07:28 10° SSW 19:12:08 48° ESE 19:15:10 38° E
Cosmos 292 Rocket 4.1 19:07:42 10° SSW 19:12:24 62° WNW 19:14:24 33° N
Cosmos 2195 Rocket 4.3 19:06:50 10° S 19:12:56 89° ESE 19:19:08 10° N
Cosmos 2112 Rocket 4.1 19:16:47 10° SSW 19:21:58 75° WNW 19:23:17 51° N
Meteor 2-20 Rocket 4.3 19:16:05 10° S 19:22:00 66° ESE 19:22:00 66° ESE
Cosmos 1943 3.1 19:23:28 10° SSW 19:28:35 71° SSE 19:28:35 71° SSE
Lacrosse 4 Rocket 3.6 19:26:23 10° NW 19:29:40 24° WSW 19:32:56 10° SSW
ATLAS 5 CENTAUR R/B 3.4 19:25:57 10° NNW 19:29:30 31° N 19:29:30 31° N
Resurs 01 Rocket 2.6 19:33:01 10° S 19:37:16 45° W 19:41:32 10° NNW
Cosmos 1417 Rocket 4.4 19:33:06 10° N 19:39:18 82° W 19:45:25 10° S
H-2A ROCKET BODY 3.9 19:30:20 10° W 19:43:40 30° SSW 19:45:24 26° S
Cosmos 1943 Rocket 3.9 19:42:38 10° NNW 19:44:33 21° N 19:44:33 21° N
Cosmos 1655 Rocket 4.4 19:45:35 10° SSW 19:51:54 63° W 19:58:12 10° N
CZ-4C R/B 3.9 19:52:22 10° NNW 19:56:23 32° N 19:56:23 32° N
NOSS 3-1 (A) 4.2 19:56:27 10° SW 20:00:05 42° SW 20:00:05 42° SW
Cosmos 2369 Rocket 4.0 20:25:38 10° NW 20:28:57 27° WNW 20:28:57 27° WNW
